Regional Weather Roundup
Issued by NWS Albany, NY

Home | Current Version | Previous Version | Text Only | Print | Product List | Glossary On
Versions: 1 2 3 4 5 6 7 8 9 10 11 12 13 14 15 16 17 18 19 20 21 22 23 24 25 26 27 28 29 30 31 32 33 34 35 36 37 38 39 40 41 42 43 44 45 46 47 48 49 50
443
ASUS41 KALY 050710
RWRALY

NEW YORK STATE HOURLY WEATHER ROUNDUP
NATIONAL WEATHER SERVICE ALBANY NY
200 AM EST MON DEC 05 2016

NOTE: "FAIR" INDICATES FEW OR NO CLOUDS BELOW 12,000 FEET WITH NO
SIGNIFICANT WEATHER AND/OR NO OBSTRUCTIONS TO VISIBILITY.

NYZ032-033-038>043-046>054-057>066-NYZ062>081-082-084-050800-
EAST


CITY           SKY/WX    TMP DP  RH WIND       PRES   REMARKS
ALBANY         CLOUDY    28  22  78 CALM      30.08F
GLENS FALLS    CLOUDY    26  21  81 CALM      30.08F
POUGHKEEPSIE   CLOUDY    30  23  75 NW3       30.08F
NEWBURGH       MOCLDY    32  25  74 CALM      30.08F
MONTGOMERY     CLOUDY    32  23  69 N7        30.08R WCI  26
WHITE PLAINS   CLOUDY    34  23  64 E7        30.05F WCI  28
ISLIP          CLOUDY    37  25  61 E5        30.10F WCI  33
NEW YORK CITY  CLOUDY    42  26  53 SE10      30.07F
CENTRAL PARK   CLOUDY    41  25  53 MISG      30.08F
$$

NYZ005>009-017-018-044>046-055-056-050800-
CENTRAL


CITY           SKY/WX    TMP DP  RH WIND       PRES   REMARKS
FULTON         CLOUDY    32  23  69 E8        29.91F WCI  25
SYRACUSE       FLURRIES  30  24  78 E7        29.93F WCI  23
ROME           CLOUDY    30  22  72 E13       30.00F WCI  20
ELMIRA         LGT SNOW  34  31  88 MISG      29.89F VSB 1
BINGHAMTON     FLURRIES  31  23  72 SE14      29.90F WCI  21
MONTICELLO     CLOUDY    28  21  74 E6        30.05R WCI  22
$$

NYZ026>034-041>043-087-050800-
NORTH


CITY           SKY/WX    TMP DP  RH WIND       PRES   REMARKS
WATERTOWN      LGT SNOW  29  25  85 E10       29.94F FOG     WCI  20
FORT DRUM      NOT AVBL
OGDENSBURG     FAIR      27  25  89 E3        30.02R
MASSENA        CLOUDY    25  20  81 E5        30.05F WCI  19
SARANAC LAKE   CLOUDY    13   9  84 CALM      29.94F
PLATTSBURGH    PTCLDY    24  20  84 CALM      30.07F
$$

NYZ001>004-010>016-019>021-085-050800-
WEST


CITY           SKY/WX    TMP DP  RH WIND       PRES   REMARKS
NIAGARA FALLS  LGT SNOW  34  30  85 E7        29.81F FOG     WCI  28
BUFFALO        LGT SNOW  33  31  92 CALM      29.81F FOG
DUNKIRK        FLURRIES  36  32  85 S8        29.80F WCI  30
JAMESTOWN      CLOUDY    32  28  86 S12       29.77S WCI  23
WELLSVILLE     LGT SNOW  33  29  85 S8G22     29.80F FOG     WCI  26
ROCHESTER      LGT SNOW  33  32  96 SE3       29.86F VSB 3/4
PENN YAN       LGT SNOW  33  29  85 S10       29.87S VSB 3/4 WCI  25
$$

             KEY
       WCI = WIND CHILL INDEX
       VSB = VISIBILITY
       HX  = HEAT INDEX
$$




USA.gov is the U.S. government's official web portal to all federal, state and local government web resources and services.